Probability
0 0 0 0 0 0 0 0 0 0 0 0 0 0 0 0 0 0 0 0 0 0 0 0 0 0 0 0 0 0 0 0 0 0 0 0 0 0 0 0 0 0 0
1 0 0 0 0 0 0 0 0 0 0 0 0 0 0 0 0 0 0 0 0 0 0 0 0 0 0 0 0 0 0 0 0 0 0 0 0 0 0 0 0 0 0
2 2 1 1 0 0 0 0 0 0 0 0 0 0 0 0 0 0 0 0 0 0 0 0 0 0 0 0 0 0 0 0 0 0 0 0 0 0 0 0 0 0 0
3 3 2 1 0 0 0 1 1 1 0 0 0 0 0 0 0 0 0 0 0 0 0 0 0 0 0 0 0 0 0 0 0 0 0 0 0 0 0 0 0 0 0
3 3 2 1 0 0 1 2 2 2 1 0 0 0 0 0 0 0 0 0 0 0 0 0 0 0 0 0 0 0 0 0 0 0 0 0 0 0 0 0 0 0 0
3 3 2 1 0 0 1 2 3 3 2 1 1 0 0 0 0 0 0 1 1 0 0 0 0 1 1 0 0 0 0 0 0 0 0 0 0 0 0 0 0 0 0
4 4 3 1 0 0 0 1 3 3 3 3 2 1 0 1 1 1 1 1 0 0 0 0 0 1 1 0 0 0 0 0 0 0 0 0 0 0 0 0 0 0 0
6 5 3 1 0 0 0 1 2 3 3 3 3 1 0 1 2 2 1 0 0 0 0 0 0 1 1 0 0 0 0 0 0 0 0 0 0 0 0 0 0 0 0
6 5 2 0 0 0 0 0 1 1 2 2 2 1 1 2 3 2 1 1 1 0 0 0 0 0 0 0 0 0 0 0 0 0 0 0 0 0 0 0 0 0 0
5 3 1 0 0 0 0 0 0 0 1 1 1 1 1 2 3 2 1 1 1 0 0 0 0 0 0 0 0 0 0 0 0 0 0 0 0 0 0 0 0 0 0
3 2 1 0 0 0 0 0 0 0 0 0 0 0 1 2 2 1 0 1 1 0 0 0 0 0 0 0 0 0 0 0 0 0 0 0 0 0 0 0 1 1 0
3 2 1 0 0 0 0 0 0 0 0 0 0 1 2 2 1 0 0 0 0 0 0 0 0 0 0 0 0 0 0 0 0 0 0 0 0 1 1 1 1 1 1
3 2 1 0 0 0 0 0 0 0 0 0 0 1 2 2 1 0 0 0 0 0 0 0 0 0 0 0 0 0 0 0 0 0 0 0 0 1 1 1 1 1 0
2 1 0 0 0 0 0 0 0 0 0 0 0 1 1 1 0 0 0 0 0 0 0 0 0 0 0 0 0 0 0 0 0 0 0 0 0 1 1 0 0 0 0
3 1 0 0 0 0 0 0 0 0 0 0 0 0 0 0 0 0 0 1 1 0 0 0 0 0 0 0 0 0 1 1 1 0 0 0 0 0 0 0 0 0 0
4 3 1 0 0 0 0 0 0 0 0 0 0 0 0 0 0 0 1 2 2 1 0 0 0 0 0 0 0 0 1 2 2 1 0 0 0 0 0 0 0 0 0
4 3 2 1 0 0 0 0 0 0 0 0 0 0 0 0 0 0 1 2 2 1 0 0 0 0 0 0 0 0 1 2 2 1 0 0 0 0 0 0 0 0 0
2 2 2 1 0 0 0 0 0 0 0 0 0 0 0 0 0 1 1 1 2 1 0 0 0 0 0 0 0 0 0 1 1 0 0 0 0 0 0 0 0 0 0
1 1 1 0 0 0 0 0 0 0 0 0 0 0 0 0 0 0 0 1 1 1 0 0 0 0 0 0 0 0 0 0 0 0 0 0 0 0 0 0 0 0 0
1 0 0 0 0 0 0 0 0 0 0 0 0 0 0 0 0 0 0 0 0 0 0 0 0 0 0 0 0 0 0 0 0 0 0 0 0 0 0 0 0 0 0
0 0 0 0 0 0 0 0 0 0 0 0 0 0 0 0 0 0 0 0 0 0 0 0 0 0 0 0 0 0 0 0 0 0 0 0 0 0 0 0 0 0 0
0 0 1 1 0 0 0 0 0 0 0 0 0 0 0 0 0 0 0 0 0 0 0 0 0 0 0 0 0 0 0 0 0 0 0 0 0 0 0 0 0 0 0
0 1 2 2 1 1 0 0 0 0 0 0 0 0 0 0 0 0 0 0 0 0 0 0 0 0 0 0 0 0 0 0 0 0 0 0 0 0 0 0 0 0 0
0 1 2 3 3 2 1 0 0 0 0 0 0 0 0 0 0 0 0 0 0 0 0 0 0 0 0 0 0 0 0 0 0 0 0 0 0 0 0 0 0 0 0
0 1 2 3 3 3 2 1 0 0 0 0 0 0 0 0 0 0 0 0 0 0 0 0 0 0 0 0 0 0 0 0 0 0 0 0 0 0 0 0 0 0 0
0 1 2 3 3 2 2 1 0 0 0 0 0 0 0 0 0 0 0 0 0 0 0 0 0 0 0 0 0 0 0 0 0 0 0 0 0 0 0 0 0 0 0
Wind_Speed
2 1 2 2 3 4 4 5 5 6 6 6 7 7 7 7 7 7 7 7 7 8 8 9 9 9 10 10 10 10 10 10 10 9 9 9 9 9 9 8 6 6 9
2 2 2 3 4 4 5 5 5 5 6 6 6 6 6 6 7 7 7 6 6 7 8 8 9 9 9 10 10 9 9 9 9 8 7 8 9 9 9 9 8 7 9
3 3 3 3 4 5 5 5 5 5 5 5 5 5 6 6 6 7 7 6 6 7 7 8 8 9 9 9 9 9 9 8 8 7 4 5 7 8 9 9 9 9 8
4 3 3 3 3 4 5 5 5 5 5 5 5 5 6 6 6 6 6 6 6 7 7 8 8 8 8 8 8 8 9 9 7 4 4 5 6 8 9 9 8 8 8
4 3 3 3 3 4 4 4 5 5 5 5 5 6 6 6 6 6 6 6 6 6 7 7 7 7 7 7 7 7 8 8 6 3 5 5 5 8 8 8 8 8 8
4 3 4 3 3 4 4 4 4 4 5 5 5 5 5 5 5 5 5 6 6 6 6 7 7 7 7 7 7 7 7 6 3 4 5 5 5 7 7 7 7 7 7
4 3 4 3 3 4 4 4 4 4 4 5 5 5 5 5 5 5 5 5 6 5 6 6 7 8 7 7 7 7 6 5 4 4 4 4 5 6 6 6 7 7 7
4 3 3 3 3 3 3 3 4 4 5 5 5 5 5 5 5 5 5 5 5 6 6 6 7 7 7 7 7 7 6 4 4 4 4 4 6 5 5 5 6 6 6
4 3 3 3 3 3 3 3 3 4 4 5 5 5 5 5 5 5 5 5 5 5 6 6 7 7 7 6 6 6 6 4 3 3 3 3 6 5 5 6 6 6 6
3 3 3 2 2 2 2 3 3 4 4 5 5 5 5 5 6 6 5 5 5 5 6 6 6 7 6 6 6 6 4 2 3 3 2 4 5 5 5 5 5 6 6
3 2 2 2 1 1 1 2 2 3 3 3 3 4 2 2 3 3 4 5 5 5 5 5 5 6 5 6 5 5 2 1 2 2 3 5 5 4 4 5 5 5 6
3 2 2 2 1 1 1 1 1 0 1 0 1 1 1 1 2 2 4 5 4 4 4 4 5 4 2 2 3 2 1 2 1 2 3 6 4 3 3 4 5 5 5
3 2 2 2 2 1 1 1 0 0 0 0 0 1 1 1 1 1 1 2 2 2 2 3 2 1 1 1 1 1 1 1 1 1 4 6 4 3 3 3 4 4 4
4 3 2 2 2 2 1 1 1 0 0 0 0 1 1 1 1 1 1 1 1 1 1 1 1 1 1 1 1 1 1 1 1 1 3 6 5 4 3 3 4 4 4
4 4 3 2 2 2 2 1 1 1 1 1 1 1 1 1 1 1 1 1 1 1 1 1 1 1 1 1 1 1 1 1 1 1 2 6 7 6 4 4 4 4 4
5 4 3 3 2 2 2 2 2 1 1 1 1 1 2 1 1 1 1 1 1 1 1 1 1 1 1 1 1 1 0 1 1 1 1 3 5 7 7 5 5 4 4
5 4 3 3 2 3 3 3 2 1 1 1 1 1 2 1 1 1 1 1 1 1 1 1 1 1 1 1 1 1 0 0 1 1 1 2 2 4 6 6 6 5 5
5 5 4 2 3 3 2 2 1 1 1 1 1 1 1 1 1 1 1 1 1 1 1 1 1 1 1 1 0 0 0 1 1 1 1 1 2 2 3 5 6 6 6
5 5 4 3 3 3 2 2 1 1 1 1 1 1 1 1 1 2 1 1 2 1 1 1 1 1 1 1 1 0 0 0 0 1 1 1 2 2 2 3 4 6 6
5 5 4 3 3 2 2 1 1 1 1 1 1 1 2 2 2 2 1 2 2 2 1 2 2 1 1 1 0 0 0 0 0 0 0 1 1 2 2 2 2 2 5
5 5 5 4 3 3 2 2 2 2 2 1 1 1 2 2 2 2 1 2 2 2 2 2 2 2 1 0 0 1 1 1 1 0 0 0 1 1 2 2 2 2 2
6 6 6 5 5 4 3 2 2 2 2 1 1 1 2 2 2 2 2 2 2 2 2 2 2 2 1 1 1 1 1 2 2 1 0 0 0 0 1 1 2 2 2
6 7 6 6 5 5 4 2 2 2 1 2 1 2 2 2 2 2 3 3 2 2 2 2 3 3 2 2 1 2 2 1 0 1 1 1 0 1 1 1 1 1 2
6 6 6 6 6 5 5 4 4 3 3 3 2 2 1 2 2 3 3 3 3 3 3 3 3 3 3 3 2 1 2 1 2 1 1 1 1 1 2 1 1 1 2
5 5 5 5 6 5 5 5 5 4 3 2 2 2 1 1 2 2 3 3 3 3 3 3 3 3 3 3 2 2 2 2 2 3 3 2 1 2 2 2 2 2 2
4 4 4 5 6 5 6 6 6 5 4 3 3 2 2 2 2 2 3 3 3 3 3 3 3 4 3 3 3 2 2 2 2 3 4 4 3 2 3 3 2 2 2
Wind_Direction
160 134 53 55 83 88 87 87 87 84 89 90 89 86 87 87 84 79 79 86 88 88 85 83 81 82 82 82 81 80 77 72 67 64 64 65 64 62 62 57 59 69 63
155 149 74 61 74 81 80 83 86 87 90 94 93 91 88 87 85 82 77 81 87 89 90 87 85 82 81 80 80 81 79 75 69 63 64 73 68 62 61 56 52 61 66
137 135 118 67 72 77 76 74 80 87 86 93 96 95 92 89 83 80 80 81 85 89 91 90 88 87 86 85 83 82 80 77 72 65 59 71 73 65 62 60 58 60 62
136 136 128 79 78 81 78 74 74 83 85 86 95 93 90 86 82 79 76 80 85 86 90 91 90 89 89 90 87 84 79 75 71 64 71 67 68 64 62 61 59 56 56
137 136 115 81 88 86 82 80 76 76 82 80 85 89 89 87 80 79 77 78 82 82 85 87 88 88 89 91 90 85 81 77 73 72 70 68 67 64 59 57 56 54 53
136 132 117 82 92 90 84 83 80 80 74 71 78 83 85 86 81 76 73 78 80 80 82 85 85 85 86 88 90 86 83 81 91 74 71 67 65 66 63 59 55 57 54
137 130 128 91 90 89 85 80 76 75 76 69 78 77 81 80 77 75 76 73 79 81 84 85 84 81 82 84 86 87 82 76 77 71 64 62 59 61 62 59 59 58 56
133 127 126 95 79 80 76 71 70 71 71 73 75 74 72 73 71 73 75 76 81 80 84 86 84 80 78 78 81 81 78 71 83 71 63 57 50 52 58 59 59 58 56
128 127 126 127 116 84 69 64 62 64 66 65 66 67 65 64 64 70 68 74 76 78 82 83 83 79 77 77 77 76 75 62 76 72 62 52 43 45 55 59 58 55 57
135 137 137 132 140 152 132 69 51 55 64 63 60 60 66 71 75 67 67 66 72 79 81 80 81 78 77 75 73 68 75 90 79 72 56 49 39 42 48 49 48 56 58
152 151 154 148 150 165 165 89 74 68 70 72 72 71 83 108 102 90 71 63 71 77 78 80 81 78 77 80 72 65 79 88 80 61 48 41 37 43 49 50 51 56 60
181 178 178 178 174 187 167 163 178 155 120 135 112 107 115 105 90 91 77 69 74 75 80 79 80 81 85 97 84 85 96 90 75 59 45 34 30 40 52 58 55 53 55
190 188 196 193 193 201 190 201 196 202 256 232 181 146 136 125 117 117 113 101 103 101 104 99 102 88 76 74 78 83 76 100 81 57 44 32 22 27 49 53 49 45 45
202 201 202 200 198 205 208 206 202 192 235 255 234 216 188 169 158 146 140 126 129 129 118 116 104 97 92 88 89 88 85 96 78 57 44 31 14 10 23 34 32 32 35
213 213 209 207 200 196 197 201 203 210 219 244 246 230 220 200 180 171 160 156 156 136 149 139 134 121 115 119 109 101 78 91 77 58 50 38 19 12 17 27 22 21 22
215 218 213 212 208 202 201 203 203 205 193 213 226 234 215 206 188 185 177 167 167 170 162 172 169 167 170 161 138 127 131 133 98 60 31 51 38 24 23 22 20 20 18
209 208 208 212 215 217 213 206 194 191 190 192 205 201 186 190 193 193 191 187 189 176 168 163 164 182 174 166 160 171 158 137 93 59 32 18 23 29 24 19 18 13 12
207 207 209 207 213 219 222 215 197 189 182 193 176 165 162 168 192 196 198 196 168 162 171 170 180 182 178 194 199 174 152 128 96 53 41 23 4 3 21 22 20 15 12
204 205 207 209 214 217 213 211 198 189 189 196 170 164 176 175 190 187 189 176 173 172 178 183 193 200 193 211 233 217 172 174 117 88 61 37 14 359 359 21 20 17 10
204 205 205 204 209 210 196 184 176 177 197 194 196 208 199 185 191 180 173 178 178 178 177 184 187 185 204 236 239 283 302 218 178 131 102 72 21 0 358 7 4 15 12
203 204 203 198 198 191 192 198 206 208 205 210 223 232 218 197 190 188 189 187 183 185 184 187 185 182 185 195 227 238 201 184 162 119 116 100 40 6 4 5 359 355 353
207 208 207 205 204 202 205 203 219 214 213 225 225 242 229 210 199 196 201 206 199 190 185 188 191 197 186 185 235 253 244 190 164 169 183 175 121 348 350 350 359 356 343
211 212 212 210 209 209 204 181 173 191 193 200 213 234 233 225 207 203 205 209 203 202 204 203 205 208 202 186 218 251 250 257 309 184 204 209 219 265 287 324 327 330 333
212 213 216 214 211 209 200 197 197 207 215 220 220 222 216 211 218 213 211 210 205 206 213 214 215 224 213 198 183 235 283 304 257 250 200 214 261 270 274 271 271 287 306
211 210 212 212 212 209 206 206 208 219 226 219 208 217 217 207 217 221 218 209 209 211 213 215 208 210 214 214 200 188 204 230 241 251 258 258 259 258 264 261 268 277 287
205 202 205 206 209 210 208 210 212 216 218 212 212 212 216 217 213 216 218 215 214 215 214 216 215 209 210 214 213 201 198 210 217 228 247 266 273 275 269 259 265 269 283